| time (UTC) | temp F | wind direction | speed knots | gust knots | rain 1hr in | rain 24hr in | rain mn in | humidity % | barometer mb |
| 20260507023303 | 55 | 230 | 0.0 | 1.7 | 0.00 | 0.00 | 0.19 | 48 | 1017.0 |
| 20260507022802 | 55 | 77 | 0.0 | 0.0 | 0.00 | 0.00 | 0.19 | 48 | 1016.5 |
| 20260507022306 | 55 | 85 | 0.0 | 1.7 | 0.00 | 0.00 | 0.19 | 48 | 1016.5 |
| 20260507021802 | 56 | 347 | 0.0 | 1.7 | 0.00 | 0.00 | 0.19 | 48 | 1016.5 |
| 20260507021303 | 56 | 334 | 0.0 | 2.6 | 0.00 | 0.00 | 0.19 | 48 | 1016.5 |
| 20260507020803 | 56 | 257 | 0.0 | 0.0 | 0.00 | 0.00 | 0.19 | 47 | 1016.1 |
| 20260507015802 | 56 | 325 | 0.0 | 0.0 | 0.00 | 0.00 | 0.19 | 47 | 1016.1 |
| 20260507014803 | 56 | 325 | 0.0 | 0.0 | 0.00 | 0.03 | 0.19 | 46 | 1015.8 |
| 20260507014303 | 57 | 347 | 0.0 | 0.0 | 0.00 | 0.07 | 0.19 | 45 | 1015.8 |
| 20260507013802 | 57 | 347 | 0.0 | 0.0 | 0.00 | 0.07 | 0.19 | 45 | 1015.8 |
| 20260507013303 | 57 | 3 | 0.0 | 0.0 | 0.00 | 0.07 | 0.19 | 45 | 1015.8 |
| 20260507012306 | 58 | 303 | 0.0 | 0.0 | 0.00 | 0.07 | 0.19 | 43 | 1015.3 |
| 20260507011802 | 58 | 347 | 0.9 | 0.0 | 0.00 | 0.07 | 0.19 | 43 | 1015.3 |
| 20260507011303 | 58 | 8 | 0.9 | 4.3 | 0.00 | 0.07 | 0.19 | 42 | 1015.3 |
| 20260507010803 | 58 | 325 | 0.9 | 4.3 | 0.00 | 0.07 | 0.19 | 42 | 1014.9 |
| 20260507010303 | 59 | 0 | 0.9 | 7.0 | 0.00 | 0.07 | 0.19 | 41 | 1014.9 |
| 20260507005305 | 60 | 330 | 0.9 | 2.6 | 0.00 | 0.07 | 0.19 | 40 | 1014.9 |
| 20260507004803 | 60 | 190 | 0.9 | 4.3 | 0.00 | 0.07 | 0.19 | 39 | 1014.9 |
| 20260507003803 | 61 | 347 | 0.9 | 2.6 | 0.00 | 0.07 | 0.19 | 40 | 1014.9 |
| 20260507003303 | 61 | 336 | 0.9 | 2.6 | 0.00 | 0.07 | 0.19 | 40 | 1014.9 |
| 20260507002803 | 60 | 190 | 0.9 | 4.3 | 0.00 | 0.07 | 0.19 | 40 | 1015.5 |
| 20260507002306 | 60 | 148 | 0.9 | 2.6 | 0.00 | 0.07 | 0.19 | 39 | 1015.5 |
| 20260507000803 | 61 | 190 | 1.7 | 10.4 | 0.00 | 0.07 | 0.19 | 39 | 1014.9 |
| 20260507000306 | 61 | 347 | 1.7 | 10.4 | 0.00 | 0.07 | 0.19 | 39 | 1014.9 |
| 20260506235803 | 61 | 303 | 1.7 | 2.6 | 0.00 | 0.07 | 0.19 | 38 | 1014.9 |
| 20260506235306 | 61 | 319 | 2.6 | 5.2 | 0.00 | 0.07 | 0.19 | 38 | 1014.9 |
| 20260506234803 | 62 | 33 | 4.3 | 7.8 | 0.00 | 0.07 | 0.19 | 38 | 1015.1 |
| 20260506234303 | 61 | 212 | 4.3 | 10.4 | 0.00 | 0.07 | 0.19 | 37 | 1015.1 |
| 20260506233303 | 62 | 322 | 2.6 | 6.1 | 0.00 | 0.07 | 0.19 | 36 | 1015.1 |
| 20260506232803 | 63 | 100 | 2.6 | 12.2 | 0.00 | 0.07 | 0.19 | 36 | 1014.4 |
| 20260506232306 | 63 | 176 | 4.3 | 6.1 | 0.00 | 0.07 | 0.19 | 36 | 1014.4 |
| 20260506231803 | 64 | 303 | 3.5 | 11.3 | 0.00 | 0.07 | 0.19 | 35 | 1014.4 |
| 20260506231303 | 67 | 269 | 1.7 | 12.2 | 0.00 | 0.07 | 0.19 | 34 | 1014.4 |
| 20260506230802 | 68 | 55 | 1.7 | 12.2 | 0.00 | 0.07 | 0.19 | 32 | 1014.1 |
| 20260506230303 | 69 | 279 | 2.6 | 6.1 | 0.00 | 0.07 | 0.19 | 36 | 1014.1 |
| 20260506225803 | 68 | 347 | 4.3 | 6.1 | 0.00 | 0.07 | 0.19 | 34 | 1014.1 |
| 20260506225305 | 67 | 296 | 4.3 | 15.6 | 0.00 | 0.07 | 0.19 | 34 | 1014.1 |
| 20260506224804 | 66 | 280 | 3.5 | 7.8 | 0.00 | 0.07 | 0.19 | 34 | 1014.5 |
| 20260506224303 | 66 | 347 | 3.5 | 7.8 | 0.00 | 0.07 | 0.19 | 33 | 1014.5 |
| 20260506223303 | 67 | 242 | 4.3 | 11.3 | 0.00 | 0.07 | 0.19 | 33 | 1014.5 |
| 20260506222803 | 67 | 10 | 4.3 | 4.3 | 0.00 | 0.07 | 0.19 | 33 | 1014.3 |
| 20260506222306 | 68 | 316 | 3.5 | 8.7 | 0.00 | 0.07 | 0.19 | 34 | 1014.3 |
| 20260506221803 | 68 | 235 | 2.6 | 7.0 | 0.00 | 0.07 | 0.19 | 34 | 1014.3 |
| 20260506221303 | 68 | 339 | 3.5 | 6.1 | 0.00 | 0.07 | 0.19 | 33 | 1014.3 |
| 20260506220303 | 67 | 347 | 5.2 | 13.9 | 0.00 | 0.07 | 0.19 | 34 | 1014.6 |
| 20260506215803 | 69 | 303 | 4.3 | 7.0 | 0.00 | 0.07 | 0.19 | 35 | 1014.6 |
| 20260506214803 | 69 | 303 | 4.3 | 8.7 | 0.00 | 0.07 | 0.19 | 33 | 1014.5 |
| 20260506214303 | 68 | 328 | 4.3 | 8.7 | 0.00 | 0.07 | 0.19 | 36 | 1014.5 |
| 20260506213303 | 68 | 264 | 4.3 | 7.0 | 0.00 | 0.07 | 0.19 | 36 | 1014.5 |
| 20260506212803 | 68 | 213 | 4.3 | 10.4 | 0.00 | 0.07 | 0.19 | 36 | 1014.8 |
| 20260506212306 | 67 | 323 | 4.3 | 10.4 | 0.00 | 0.07 | 0.19 | 35 | 1014.8 |
| 20260506211802 | 66 | 347 | 4.3 | 8.7 | 0.00 | 0.07 | 0.19 | 36 | 1014.8 |
| 20260506211303 | 68 | 299 | 4.3 | 5.2 | 0.00 | 0.07 | 0.19 | 37 | 1014.8 |
| 20260506210803 | 68 | 10 | 3.5 | 7.0 | 0.00 | 0.07 | 0.19 | 36 | 1015.0 |
| 20260506210303 | 69 | 286 | 1.7 | 6.1 | 0.00 | 0.07 | 0.19 | 37 | 1015.0 |
| 20260506205803 | 68 | 77 | 1.7 | 4.3 | 0.00 | 0.07 | 0.19 | 38 | 1015.0 |
| 20260506205306 | 66 | 296 | 2.6 | 2.6 | 0.00 | 0.07 | 0.19 | 37 | 1015.0 |
| 20260506204803 | 65 | 100 | 4.3 | 8.7 | 0.00 | 0.07 | 0.19 | 37 | 1015.3 |
| 20260506204303 | 65 | 202 | 4.3 | 8.7 | 0.00 | 0.07 | 0.19 | 36 | 1015.3 |
| 20260506203804 | 68 | 33 | 4.3 | 7.8 | 0.00 | 0.07 | 0.19 | 36 | 1015.3 |
| 20260506203303 | 67 | 347 | 4.3 | 7.8 | 0.00 | 0.07 | 0.19 | 36 | 1015.3 |
| 20260506202803 | 67 | 100 | 4.3 | 7.8 | 0.00 | 0.07 | 0.19 | 35 | 1015.5 |
| 20260506202306 | 67 | 0 | 4.3 | 14.8 | 0.00 | 0.07 | 0.19 | 36 | 1015.5 |
| 20260506201803 | 68 | 145 | 2.6 | 6.1 | 0.00 | 0.07 | 0.19 | 37 | 1015.5 |
| 20260506201303 | 67 | 328 | 2.6 | 10.4 | 0.00 | 0.07 | 0.19 | 37 | 1015.5 |
| 20260506200804 | 65 | 347 | 4.3 | 5.2 | 0.00 | 0.07 | 0.19 | 37 | 1015.5 |
| 20260506200303 | 65 | 290 | 2.6 | 6.1 | 0.00 | 0.07 | 0.19 | 38 | 1015.5 |
| 20260506195803 | 64 | 303 | 2.6 | 7.0 | 0.00 | 0.07 | 0.19 | 37 | 1015.5 |
| 20260506195305 | 65 | 334 | 5.2 | 7.8 | 0.00 | 0.07 | 0.19 | 37 | 1015.5 |
| 20260506194804 | 64 | 10 | 5.2 | 13.9 | 0.00 | 0.07 | 0.19 | 34 | 1015.7 |
| 20260506194304 | 66 | 334 | 4.3 | 13.9 | 0.00 | 0.07 | 0.19 | 36 | 1015.7 |
| 20260506193803 | 66 | 190 | 4.3 | 10.4 | 0.00 | 0.07 | 0.19 | 36 | 1015.7 |
| 20260506193304 | 66 | 272 | 4.3 | 6.1 | 0.00 | 0.07 | 0.19 | 36 | 1015.7 |
| 20260506192305 | 65 | 321 | 5.2 | 8.7 | 0.00 | 0.07 | 0.19 | 37 | 1015.7 |
| 20260506191803 | 65 | 325 | 5.2 | 8.7 | 0.00 | 0.07 | 0.19 | 37 | 1015.7 |
| 20260506191303 | 65 | 85 | 4.3 | 5.2 | 0.00 | 0.07 | 0.19 | 39 | 1015.7 |
| 20260506190804 | 66 | 190 | 2.6 | 4.3 | 0.00 | 0.07 | 0.19 | 39 | 1015.7 |
| 20260506190303 | 65 | 294 | 1.7 | 6.1 | 0.00 | 0.07 | 0.19 | 42 | 1015.7 |
| 20260506185803 | 62 | 33 | 2.6 | 6.1 | 0.00 | 0.07 | 0.19 | 42 | 1015.7 |
| 20260506185306 | 64 | 333 | 3.5 | 4.3 | 0.00 | 0.07 | 0.19 | 42 | 1015.7 |
| 20260506184803 | 64 | 347 | 2.6 | 10.4 | 0.00 | 0.07 | 0.19 | 41 | 1015.7 |
| 20260506184303 | 65 | 153 | 4.3 | 6.1 | 0.00 | 0.07 | 0.19 | 42 | 1015.7 |
| 20260506183803 | 64 | 325 | 4.3 | 8.7 | 0.00 | 0.07 | 0.19 | 40 | 1015.7 |
| 20260506183304 | 64 | 327 | 3.5 | 7.8 | 0.00 | 0.07 | 0.19 | 41 | 1015.7 |
| 20260506182803 | 64 | 167 | 2.6 | 4.3 | 0.00 | 0.07 | 0.19 | 45 | 1016.2 |
| 20260506182306 | 64 | 107 | 4.3 | 7.8 | 0.00 | 0.07 | 0.19 | 44 | 1016.2 |
| 20260506181303 | 64 | 321 | 2.6 | 8.7 | 0.00 | 0.07 | 0.19 | 47 | 1016.2 |
| 20260506175803 | 61 | 257 | 4.3 | 13.0 | 0.00 | 0.07 | 0.19 | 54 | 1016.4 |
| 20260506175306 | 61 | 321 | 5.2 | 13.0 | 0.00 | 0.07 | 0.19 | 54 | 1016.4 |
| 20260506174304 | 60 | 12 | 2.6 | 13.0 | 0.00 | 0.07 | 0.19 | 57 | 1016.4 |
| 20260506173804 | 60 | 347 | 1.7 | 13.0 | 0.00 | 0.07 | 0.19 | 58 | 1016.4 |
| 20260506172803 | 58 | 10 | 2.6 | 6.1 | 0.00 | 0.07 | 0.19 | 61 | 1016.6 |
| 20260506172306 | 58 | 304 | 4.3 | 7.8 | 0.00 | 0.07 | 0.19 | 64 | 1016.6 |
| 20260506171803 | 57 | 190 | 5.2 | 10.4 | 0.00 | 0.07 | 0.19 | 63 | 1016.6 |
| 20260506171303 | 57 | 0 | 4.3 | 10.4 | 0.00 | 0.07 | 0.19 | 63 | 1016.6 |
| 20260506170803 | 57 | 347 | 2.6 | 7.0 | 0.00 | 0.07 | 0.19 | 65 | 1016.3 |
| 20260506170303 | 57 | 22 | 2.6 | 7.8 | 0.00 | 0.07 | 0.19 | 65 | 1016.3 |
| 20260506165803 | 57 | 347 | 1.7 | 4.3 | 0.00 | 0.07 | 0.19 | 68 | 1016.3 |
| 20260506165305 | 57 | 340 | 1.7 | 4.3 | 0.00 | 0.07 | 0.19 | 68 | 1016.3 |
| 20260506164804 | 57 | 303 | 2.6 | 4.3 | 0.00 | 0.07 | 0.19 | 70 | 1016.5 |
| 20260506164303 | 56 | 303 | 1.7 | 7.0 | 0.00 | 0.07 | 0.19 | 69 | 1016.5 |
| 20260506163804 | 56 | 100 | 1.7 | 7.0 | 0.00 | 0.07 | 0.19 | 71 | 1016.5 |
| 20260506163304 | 56 | 77 | 2.6 | 6.1 | 0.00 | 0.07 | 0.19 | 71 | 1016.5 |
| 20260506162803 | 55 | 347 | 1.7 | 7.0 | 0.00 | 0.07 | 0.19 | 73 | 1016.3 |
| 20260506162306 | 55 | 214 | 1.7 | 7.0 | 0.00 | 0.07 | 0.19 | 74 | 1016.3 |
| 20260506161803 | 55 | 100 | 0.9 | 6.1 | 0.00 | 0.07 | 0.19 | 76 | 1016.3 |
| 20260506161304 | 55 | 347 | 0.9 | 4.3 | 0.00 | 0.07 | 0.19 | 77 | 1016.3 |
| 20260506160803 | 54 | 123 | 1.7 | 5.2 | 0.00 | 0.07 | 0.19 | 78 | 1016.2 |
| 20260506160303 | 54 | 143 | 1.7 | 4.3 | 0.00 | 0.07 | 0.19 | 78 | 1016.2 |
| 20260506155804 | 54 | 10 | 0.9 | 2.6 | 0.00 | 0.07 | 0.19 | 79 | 1016.2 |
| 20260506155306 | 54 | 61 | 1.7 | 4.3 | 0.00 | 0.07 | 0.19 | 80 | 1016.2 |
| 20260506154803 | 54 | 235 | 1.7 | 7.8 | 0.00 | 0.07 | 0.19 | 81 | 1015.7 |
| 20260506154303 | 54 | 29 | 1.7 | 7.8 | 0.00 | 0.07 | 0.19 | 81 | 1015.7 |
| 20260506153803 | 54 | 303 | 1.7 | 4.3 | 0.00 | 0.07 | 0.19 | 82 | 1015.7 |
| 20260506153304 | 53 | 149 | 0.9 | 2.6 | 0.00 | 0.07 | 0.19 | 82 | 1015.7 |
| 20260506152803 | 53 | 123 | 0.9 | 4.3 | 0.00 | 0.07 | 0.19 | 83 | 1015.9 |
| 20260506152305 | 53 | 290 | 1.7 | 4.3 | 0.00 | 0.07 | 0.19 | 83 | 1015.9 |
| 20260506151804 | 53 | 145 | 1.7 | 7.8 | 0.00 | 0.07 | 0.19 | 84 | 1015.9 |
| 20260506151303 | 53 | 213 | 1.7 | 7.8 | 0.00 | 0.07 | 0.19 | 84 | 1015.9 |
| 20260506150304 | 52 | 163 | 1.7 | 7.0 | 0.00 | 0.07 | 0.19 | 85 | 1015.6 |
| 20260506145305 | 52 | 100 | 1.7 | 2.6 | 0.00 | 0.07 | 0.19 | 85 | 1015.6 |
| 20260506144804 | 52 | 347 | 1.7 | 2.6 | 0.00 | 0.07 | 0.19 | 88 | 1015.8 |
| 20260506144303 | 51 | 291 | 1.7 | 10.4 | 0.00 | 0.07 | 0.19 | 88 | 1015.8 |
| 20260506143803 | 51 | 303 | 1.7 | 7.0 | 0.00 | 0.07 | 0.19 | 88 | 1015.8 |
| 20260506142804 | 51 | 347 | 1.7 | 6.1 | 0.00 | 0.07 | 0.19 | 90 | 1015.8 |
| 20260506141803 | 50 | 10 | 1.7 | 4.3 | 0.00 | 0.07 | 0.19 | 91 | 1015.8 |
| 20260506140803 | 50 | 280 | 1.7 | 8.7 | 0.00 | 0.07 | 0.19 | 92 | 1016.0 |
| 20260506135306 | 50 | 308 | 2.6 | 5.2 | 0.00 | 0.07 | 0.19 | 93 | 1016.0 |
| 20260506134804 | 50 | 10 | 1.7 | 4.3 | 0.00 | 0.07 | 0.19 | 94 | 1016.0 |
| 20260506134304 | 49 | 100 | 0.9 | 4.3 | 0.00 | 0.10 | 0.19 | 94 | 1016.0 |
| 20260506133303 | 49 | 347 | 0.9 | 1.7 | 0.00 | 0.10 | 0.19 | 95 | 1016.0 |
| 20260506132804 | 49 | 347 | 0.9 | 0.0 | 0.00 | 0.13 | 0.19 | 95 | 1015.6 |
| 20260506132307 | 48 | 145 | 0.9 | 2.6 | 0.00 | 0.16 | 0.19 | 96 | 1015.6 |
| 20260506131804 | 48 | 303 | 0.9 | 2.6 | 0.00 | 0.16 | 0.19 | 96 | 1015.6 |
| 20260506131304 | 48 | 316 | 0.9 | 2.6 | 0.00 | 0.16 | 0.19 | 96 | 1015.6 |
| 20260506130803 | 48 | 303 | 0.0 | 2.6 | 0.00 | 0.16 | 0.19 | 96 | 1015.5 |
| 20260506125803 | 48 | 123 | 0.9 | 0.0 | 0.00 | 0.16 | 0.19 | 96 | 1015.5 |
| 20260506125305 | 48 | 276 | 0.9 | 0.0 | 0.00 | 0.16 | 0.19 | 96 | 1015.5 |
| 20260506124303 | 47 | 310 | 0.9 | 1.7 | 0.00 | 0.16 | 0.19 | 96 | 1015.5 |
| 20260506123304 | 47 | 224 | 0.9 | 5.2 | 0.00 | 0.16 | 0.19 | 96 | 1015.5 |
| 20260506122305 | 47 | 90 | 0.9 | 0.0 | 0.00 | 0.16 | 0.19 | 96 | 1015.0 |
| 20260506121303 | 47 | 313 | 0.9 | 2.6 | 0.00 | 0.16 | 0.19 | 96 | 1015.0 |
| 20260506120303 | 47 | 355 | 0.9 | 4.3 | 0.00 | 0.16 | 0.19 | 97 | 1015.1 |
| 20260506115804 | 47 | 325 | 1.7 | 5.2 | 0.00 | 0.16 | 0.19 | 97 | 1015.1 |
| 20260506115306 | 47 | 347 | 0.9 | 5.2 | 0.00 | 0.16 | 0.19 | 97 | 1015.1 |
| 20260506114810 | 47 | 347 | 0.9 | 5.2 | 0.00 | 0.16 | 0.19 | 97 | 1014.8 |
| 20260506114304 | 47 | 145 | 0.9 | 4.3 | 0.00 | 0.16 | 0.19 | 96 | 1014.8 |
| 20260506113804 | 47 | 145 | 0.0 | 0.0 | 0.00 | 0.16 | 0.19 | 97 | 1014.8 |
| 20260506113303 | 47 | 29 | 0.0 | 0.0 | 0.00 | 0.16 | 0.19 | 96 | 1014.8 |
| 20260506112804 | 47 | 347 | 0.0 | 4.3 | 0.00 | 0.19 | 0.19 | 96 | 1014.3 |
| 20260506112306 | 47 | 132 | 0.0 | 4.3 | 0.00 | 0.19 | 0.19 | 96 | 1014.3 |
| 20260506111804 | 47 | 347 | 0.0 | 0.0 | 0.00 | 0.19 | 0.19 | 96 | 1014.3 |
| 20260506111303 | 47 | 145 | 0.0 | 0.0 | 0.00 | 0.19 | 0.19 | 96 | 1014.3 |
| 20260506110803 | 47 | 123 | 0.0 | 1.7 | 0.00 | 0.19 | 0.19 | 96 | 1014.1 |
| 20260506105804 | 47 | 123 | 0.9 | 2.6 | 0.00 | 0.19 | 0.19 | 96 | 1014.1 |
| 20260506104304 | 47 | 145 | 0.0 | 2.6 | 0.00 | 0.19 | 0.19 | 97 | 1013.2 |
| 20260506103804 | 47 | 145 | 0.0 | 0.0 | 0.00 | 0.19 | 0.19 | 97 | 1013.2 |
| 20260506103303 | 47 | 145 | 0.9 | 0.0 | 0.00 | 0.19 | 0.19 | 97 | 1013.2 |
| 20260506102803 | 47 | 145 | 0.9 | 5.2 | 0.00 | 0.19 | 0.19 | 97 | 1013.3 |
| 20260506102305 | 47 | 134 | 0.9 | 4.3 | 0.00 | 0.19 | 0.19 | 97 | 1013.3 |
| 20260506101304 | 47 | 347 | 0.0 | 0.0 | 0.00 | 0.19 | 0.19 | 97 | 1013.3 |
| 20260506100804 | 47 | 123 | 0.0 | 0.0 | 0.00 | 0.19 | 0.19 | 97 | 1012.8 |
| 20260506100303 | 47 | 10 | 0.0 | 0.0 | 0.00 | 0.19 | 0.19 | 97 | 1012.8 |
| 20260506095804 | 47 | 190 | 0.0 | 4.3 | 0.00 | 0.19 | 0.19 | 97 | 1012.8 |
| 20260506094803 | 47 | 347 | 0.0 | 1.7 | 0.00 | 0.19 | 0.19 | 97 | 1013.3 |
| 20260506094303 | 47 | 16 | 0.0 | 0.0 | 0.00 | 0.19 | 0.19 | 97 | 1013.3 |
| 20260506093303 | 47 | 316 | 0.0 | 0.0 | 0.00 | 0.19 | 0.19 | 97 | 1013.3 |
| 20260506092804 | 47 | 347 | 0.0 | 0.0 | 0.00 | 0.19 | 0.19 | 98 | 1013.8 |
| 20260506092305 | 47 | 83 | 0.0 | 0.0 | 0.00 | 0.19 | 0.19 | 98 | 1013.8 |
| 20260506091804 | 46 | 10 | 0.0 | 0.0 | 0.00 | 0.19 | 0.19 | 98 | 1013.8 |
| 20260506091304 | 46 | 193 | 0.0 | 0.0 | 0.00 | 0.19 | 0.19 | 98 | 1013.8 |
| 20260506090804 | 46 | 325 | 0.0 | 0.0 | 0.00 | 0.19 | 0.19 | 98 | 1013.2 |
| 20260506090304 | 46 | 42 | 0.0 | 4.3 | 0.00 | 0.19 | 0.19 | 98 | 1013.2 |
| 20260506085804 | 46 | 145 | 0.0 | 4.3 | 0.00 | 0.19 | 0.19 | 98 | 1013.2 |
| 20260506085305 | 46 | 347 | 0.9 | 0.0 | 0.00 | 0.19 | 0.19 | 98 | 1013.2 |
| 20260506083803 | 46 | 347 | 0.0 | 1.7 | 0.00 | 0.19 | 0.19 | 98 | 1013.5 |
| 20260506083304 | 46 | 6 | 0.0 | 0.0 | 0.00 | 0.19 | 0.19 | 98 | 1013.5 |
| 20260506082305 | 47 | 347 | 0.0 | 1.7 | 0.00 | 0.19 | 0.19 | 98 | 1013.2 |
| 20260506081804 | 47 | 100 | 0.0 | 1.7 | 0.00 | 0.19 | 0.19 | 98 | 1013.2 |
| 20260506080804 | 47 | 190 | 0.9 | 4.3 | 0.00 | 0.19 | 0.19 | 98 | 1012.6 |
| 20260506073304 | 47 | 240 | 0.0 | 0.0 | 0.00 | 0.19 | 0.19 | 98 | 1012.6 |
| 20260506072804 | 47 | 123 | 0.0 | 0.0 | 0.00 | 0.19 | 0.19 | 98 | 1013.6 |
| 20260506072305 | 47 | 65 | 0.9 | 4.3 | 0.00 | 0.19 | 0.19 | 98 | 1013.6 |
| 20260506071804 | 47 | 325 | 0.0 | 0.0 | 0.00 | 0.19 | 0.19 | 98 | 1013.6 |
| 20260506071304 | 47 | 23 | 0.9 | 1.7 | 0.00 | 0.19 | 0.19 | 98 | 1013.6 |
| 20260506070804 | 47 | 10 | 0.9 | 4.3 | 0.00 | 0.19 | 0.19 | 98 | 1013.4 |
| 20260506070304 | 47 | 0 | 0.9 | 4.3 | 0.00 | 0.19 | 0.19 | 97 | 1013.4 |
| 20260506062305 | 47 | 2 | 0.0 | 0.0 | 0.00 | 0.19 | 0.19 | 97 | 1013.0 |
| 20260506061804 | 47 | 145 | 0.0 | 0.0 | 0.00 | 0.19 | 0.19 | 97 | 1013.0 |
| 20260506061304 | 47 | 145 | 0.0 | 0.0 | 0.00 | 0.19 | 0.19 | 97 | 1013.0 |
| 20260506060804 | 47 | 123 | 0.0 | 0.0 | 0.00 | 0.19 | 0.19 | 97 | 1013.1 |
| 20260506060304 | 47 | 176 | 0.9 | 2.6 | 0.00 | 0.19 | 0.19 | 97 | 1013.1 |
| 20260506044802 | 46 | 10 | 0.0 | 0.0 | 0.00 | 0.19 | 0.19 | 96 | 1013.1 |
| 20260506043803 | 46 | 347 | 0.0 | 0.0 | 0.00 | 0.19 | 0.19 | 96 | 1013.1 |
| 20260506043303 | 46 | 347 | 0.0 | 0.0 | 0.00 | 0.19 | 0.19 | 96 | 1013.1 |
| 20260506042803 | 46 | 123 | 0.0 | 0.0 | 0.00 | 0.19 | 0.19 | 96 | 1012.9 |
| 20260506042305 | 46 | 145 | 0.9 | 4.3 | 0.00 | 0.19 | 0.19 | 96 | 1012.9 |
| 20260506041802 | 46 | 145 | 0.0 | 2.6 | 0.00 | 0.19 | 0.19 | 95 | 1012.9 |
| 20260506041302 | 46 | 190 | 0.0 | 0.0 | 0.00 | 0.19 | 0.19 | 95 | 1012.9 |
| 20260506040803 | 46 | 190 | 0.9 | 4.3 | 0.00 | 0.19 | 0.19 | 95 | 1013.1 |
| 20260506034802 | 46 | 33 | 0.0 | 0.0 | 0.00 | 0.19 | 0.19 | 95 | 1013.4 |
| 20260506034302 | 46 | 3 | 0.0 | 1.7 | 0.00 | 0.19 | 0.19 | 95 | 1013.4 |
| 20260506033802 | 46 | 280 | 0.0 | 1.7 | 0.00 | 0.19 | 0.19 | 95 | 1013.4 |
| 20260506033302 | 46 | 340 | 0.0 | 0.0 | 0.00 | 0.19 | 0.19 | 95 | 1013.4 |
| 20260506032802 | 46 | 347 | 0.0 | 0.0 | 0.00 | 0.19 | 0.19 | 95 | 1012.6 |
| 20260506032305 | 46 | 145 | 0.0 | 0.0 | 0.00 | 0.19 | 0.19 | 95 | 1012.6 |
| 20260506031802 | 46 | 145 | 0.0 | 0.0 | 0.00 | 0.19 | 0.19 | 95 | 1012.6 |
| 20260506031302 | 46 | 115 | 0.0 | 0.0 | 0.00 | 0.19 | 0.19 | 95 | 1012.6 |
| 20260506030802 | 46 | 100 | 0.0 | 0.0 | 0.00 | 0.19 | 0.19 | 95 | 1012.2 |
| 20260506030302 | 46 | 145 | 0.0 | 0.0 | 0.00 | 0.19 | 0.19 | 95 | 1012.2 |
| 20260506025802 | 46 | 100 | 0.0 | 0.0 | 0.00 | 0.19 | 0.19 | 95 | 1012.2 |
| 20260506025305 | 46 | 145 | 0.0 | 0.0 | 0.00 | 0.19 | 0.19 | 95 | 1012.2 |
| 20260506024802 | 46 | 145 | 0.0 | 0.0 | 0.00 | 0.19 | 0.19 | 95 | 1012.3 |
| 20260506024302 | 46 | 72 | 0.0 | 1.7 | 0.00 | 0.19 | 0.19 | 95 | 1012.3 |
| 20260506023803 | 46 | 190 | 0.0 | 0.0 | 0.00 | 0.19 | 0.19 | 95 | 1012.3 |